SCP
0 0 0 0 0 0 0 0 0 0 0 0 0 0 0 0 0 0 0 0 0 0 0 0 0 0 0 0 0 0 0 0 0 0 0 0 0 0 0 0 0 0 0
0 0 0 0 0 0 0 0 0 0 0 0 0 0 0 0 0 0 0 0 0 0 0 0 0 0 0 0 0 0 0 0 0 0 0 0 0 0 0 0 0 0 0
0 0 0 0 0 0 0 0 0 0 0 0 0 0 0 0 0 0 0 0 0 0 0 0 0 0 0 0 0 0 0 0 0 0 0 0 0 0 0 0 0 0 0
0 0 0 0 0 0 0 0 0 0 0 0 0 0 0 0 0 0 0 0 0 0 0 0 0 0 0 0 0 0 0 0 0 0 0 0 0 0 0 0 0 0 0
0 0 0 0 0 0 0 0 0 0 0 0 0 0 0 0 0 0 0 0 0 0 0 0 0 0 0 0 0 0 0 0 0 0 0 0 0 0 0 0 0 0 0
0 0 0 0 0 0 0 0 0 0 0 0 0 0 0 0 0 0 0 0 0 0 0 0 0 0 0 0 0 0 0 0 0 0 0 0 0 0 0 0 0 0 0
0 0 0 0 0 0 0 0 0 0 0 0 0 0 0 0 0 0 0 0 0 0 0 0 0 0 0 0 0 0 0 0 0 0 0 0 0 0 0 0 0 0 0
0 0 0 0 0 0 0 0 0 0 0 0 0 0 0 0 0 0 0 0 0 0 0 0 0 0 0 0 0 0 0 0 0 0 0 0 0 0 0 0 0 0 0
0 0 0 0 0 0 0 0 0 0 0 0 0 0 -0 0 0 0 0 0 0 0 0 0 0 0 0 0 0 0 0 0 0 0 0 0 0 0 0 0 0 0 0
0 0 0 0 0 0 0 0 0 0 0 0 0 0 -0 0 0 0 0 0 0 0 0 0 0 0 0 0 0 0 0 0 0 0 0 0 0 0 0 0 0 0 0
0 0 0 0 0 0 0 0 0 0 0 0 0 0 0 0 0 0 0 0 0 0 0 0 0 0 0 0 0 0 0 0 0 0 0 0 0 0 0 0 0 0 0
0 0 0 0 0 0 0 0 0 0 0 0 0 0 0 0 0 0 0 0 0 0 0 0 0 0 0 0 0 0 0 0 0 0 0 0 0 0 0 0 0 0 0
0 0 0 0 0 0 0 0 0 0 0 0 0 0 0 0 0 0 0 0 0 0 0 0 0 0 0 0 0 0 0 0 0 0 0 0 0 0 0 0 0 0 0
0 0 0 0 0 0 0 0 0 0 0 0 0 0 0 0 0 0 0 0 0 0 0 0 0 0 0 0 0 0 0 0 0 0 0 0 0 0 0 0 0 0 0
0 0 0 0 0 0 0 0 0 0 0 0 0 0 0 0 0 0 0 0 0 0 0 0 0 0 0 0 0 0 0 0 0 0 0 0 0 0 0 0 0 0 0
0 0 0 0 0 0 0 0 0 0 0 0 0 0 0 0 0 0 0 0 0 0 0 0 0 0 0 0 0 0 0 0 0 0 0 0 0 0 0 0 0 0 0
0 0 0 0 0 0 0 0 0 0 -0 0 0 0 0 0 0 0 0 0 0 0 0 0 0 0 0 0 0 0 0 0 0 0 0 0 0 0 0 0 0 0 0
0 0 0 0 0 0 0 0 0 0 0 0 0 0 0 0 0 0 0 0 0 0 0 0 0 0 0 0 0 0 0 0 0 0 0 0 0 0 0 0 0 0 0
0 0 0 0 0 0 0 0 0 0 0 0 0 0 0 0 0 0 0 0 0 0 0 0 0 0 0 0 0 0 0 0 0 0 0 0 0 0 0 0 0 0 0
0 0 0 0 0 0 0 0 0 0 0 0 0 0 0 0 0 0 0 0 0 0 0 0 0 0 0 0 0 0 0 0 0 0 0 0 0 0 0 0 0 0 0
0 0 0 0 0 0 0 0 0 0 0 0 0 0 0 0 0 0 0 0 0 0 0 0 0 0 0 0 0 0 0 0 0 0 0 0 0 0 0 0 0 0 0
0 0 0 0 0 0 0 0 0 0 0 0 0 0 0 0 0 0 0 0 0 0 0 0 0 0 0 0 0 0 0 0 0 0 0 0 0 0 0 0 0 0 0
0 0 0 0 0 0 0 0 0 0 0 0 0 0 0 0 0 0 0 0 0 0 0 0 0 0 0 0 0 0 0 0 0 0 0 0 0 0 0 0 0 0 0
0 0 0 0 0 0 0 0 0 0 0 0 0 0 0 0 0 0 0 0 0 0 0 0 0 0 0 0 0 0 0 0 0 0 0 0 0 0 0 0 0 0 0
0 0 0 0 0 0 0 0 0 0 0 0 0 0 0 0 0 0 0 0 0 0 0 0 0 0 0 0 0 0 0 0 0 0 0 0 0 0 0 0 0 0 0
0 0 0 0 0 0 0 0 0 0 0 0 0 0 0 0 0 0 0 0 0 0 0 0 0 0 0 0 0 0 0 0 0 0 0 0 0 0 0 0 0 0 0
Wind_Speed
10 9 9 8 8 8 8 7 6 6 6 6 6 6 7 7 6 6 5 5 5 5 4 5 4 3 3 4 3 3 3 2 1 3 2 3 3 4 5 4 4 4 5
8 8 8 7 7 7 7 6 6 6 5 5 6 6 6 6 6 6 6 6 5 5 5 4 4 4 4 3 3 3 3 2 1 3 3 3 4 4 4 5 4 4 4
7 7 7 7 6 6 5 5 5 5 5 5 5 6 5 5 6 5 5 5 5 4 4 4 3 3 3 2 3 3 2 3 1 1 3 3 3 3 4 4 5 4 6
7 7 7 6 5 5 5 5 4 4 4 4 4 4 4 5 5 5 5 5 5 5 4 4 3 2 1 2 2 3 3 3 3 2 3 3 3 4 2 3 4 4 5
6 6 5 4 4 4 4 4 4 4 4 3 4 4 4 4 4 5 5 5 5 5 5 5 4 3 4 2 2 3 3 2 3 3 3 3 4 3 3 3 3 5 5
5 5 4 4 3 3 3 3 4 4 3 4 4 3 3 3 6 8 6 4 4 4 5 5 4 4 6 7 9 8 6 3 3 2 2 4 5 4 3 3 2 3 5
5 4 3 3 3 2 3 3 3 2 2 3 2 3 2 3 7 9 9 4 4 4 4 4 3 4 4 4 8 10 9 9 6 3 3 5 4 4 3 4 3 3 4
4 4 3 3 3 2 3 2 2 1 1 1 1 2 2 3 6 9 9 6 4 5 4 3 2 3 3 4 5 7 7 7 7 4 4 6 7 6 5 4 3 4 5
4 3 3 3 3 3 2 1 1 1 1 1 1 2 1 2 5 7 8 4 4 6 5 4 3 3 6 7 5 6 8 7 7 8 9 9 11 11 6 2 2 1 3
3 3 3 3 3 2 1 1 1 1 1 1 1 1 1 1 4 6 7 3 4 5 5 5 6 7 9 9 4 4 6 7 7 9 9 9 7 7 6 4 3 2 2
3 3 3 3 2 2 1 1 1 2 2 2 1 0 0 1 4 7 7 2 3 4 5 5 6 11 13 11 6 4 7 7 6 6 6 6 6 4 4 2 3 4 3
4 3 2 2 1 2 2 2 3 3 3 2 2 2 2 2 3 6 9 7 5 2 4 5 7 13 13 10 6 6 8 6 3 4 4 4 4 4 4 4 3 4 5
3 2 1 2 2 3 3 3 3 3 3 2 2 2 2 2 3 7 8 9 9 4 5 10 12 12 9 6 8 9 6 3 3 3 4 4 4 4 4 4 4 3 3
2 1 1 2 2 2 2 2 3 2 2 2 2 2 1 2 3 4 5 6 8 7 6 9 11 9 7 6 6 6 4 3 3 3 4 4 4 4 3 2 2 3 3
1 0 1 2 2 2 2 1 2 1 2 3 1 1 0 2 4 6 5 5 5 5 6 4 4 5 6 6 5 5 5 5 5 4 4 4 4 4 3 3 2 2 2
1 0 1 1 1 2 2 1 2 1 1 2 3 3 2 4 7 9 10 10 10 6 3 3 4 4 4 5 5 5 5 5 5 4 4 4 4 4 4 3 2 1 2
2 1 1 1 1 2 2 2 1 2 3 3 4 4 5 7 9 10 10 10 9 6 4 3 4 4 4 4 4 4 4 5 5 5 5 5 5 5 4 4 3 3 2
2 1 2 1 1 2 2 2 2 1 1 3 4 5 6 7 8 8 7 6 6 5 3 3 4 4 4 4 4 4 5 5 5 6 6 6 5 5 5 4 4 3 3
2 1 1 1 1 1 1 2 2 2 1 1 2 4 5 5 6 7 5 3 2 3 3 3 3 3 3 4 4 4 4 5 6 5 5 6 6 5 5 5 4 5 3
2 3 3 2 1 1 2 2 2 2 1 0 1 2 3 3 3 4 3 2 2 2 3 3 3 4 4 4 4 4 5 5 6 6 6 6 6 5 5 6 5 4 3
1 1 2 2 2 2 2 2 2 2 1 1 1 2 0 1 1 1 2 2 2 2 2 2 3 3 4 4 4 5 6 5 5 5 6 6 6 6 5 5 4 4 3
2 1 2 2 2 2 2 2 2 1 1 0 1 1 1 1 1 1 1 2 2 1 1 2 2 2 3 3 3 4 5 5 6 6 6 6 6 6 6 5 5 4 3
2 2 2 3 3 3 3 2 1 1 1 1 0 0 1 1 1 1 1 1 2 2 2 2 2 3 3 3 3 3 4 5 6 6 6 7 6 6 5 5 5 5 4
1 3 4 4 3 3 2 2 1 1 1 0 1 1 1 0 0 1 1 1 1 2 2 2 2 4 5 4 3 3 4 5 6 5 7 6 6 5 5 5 5 5 4
1 3 4 4 4 3 3 2 1 1 1 1 1 1 1 1 1 1 1 2 2 2 3 2 2 3 5 6 6 6 8 10 8 6 5 4 5 5 5 5 4 4 3
2 4 4 4 4 4 3 3 2 2 1 1 1 1 2 2 1 0 1 2 2 2 2 2 3 4 6 5 7 9 10 10 11 10 6 4 5 5 6 4 5 4 4
Wind_Direction
75 76 78 75 74 75 76 74 72 69 68 69 66 62 56 48 42 45 41 39 39 28 25 32 25 26 25 18 20 26 29 49 358 300 290 305 318 316 313 299 281 272 278
80 79 77 75 73 73 73 70 71 70 65 69 69 64 60 51 42 41 37 34 35 30 19 21 13 21 20 12 18 17 8 18 23 311 306 313 305 304 302 304 306 307 297
86 83 77 73 72 71 70 68 70 71 66 68 73 69 59 49 41 35 34 30 25 18 9 6 353 13 3 353 7 5 346 353 357 312 300 298 299 313 325 320 320 317 315
88 87 84 80 79 76 71 68 68 74 76 75 75 73 64 52 40 28 24 23 11 0 353 348 337 337 328 334 347 340 333 336 334 328 309 306 304 308 328 322 323 321 313
96 94 94 91 83 77 71 65 64 68 84 85 80 67 56 49 32 26 15 13 4 353 347 345 341 3 12 2 343 318 320 317 319 319 309 312 309 320 317 303 306 308 304
109 109 105 96 87 80 73 65 60 58 63 71 76 77 55 38 22 23 21 8 359 356 345 341 343 14 9 2 352 342 330 306 295 282 284 296 289 284 282 288 297 325 313
118 117 113 108 96 87 83 73 64 57 67 78 84 84 62 16 16 15 17 20 4 353 343 338 348 4 7 349 337 338 333 324 311 255 258 273 270 268 273 287 280 270 265
120 120 123 118 109 98 80 68 54 60 78 94 103 104 67 8 12 16 16 20 7 355 345 338 337 331 328 329 326 326 319 312 304 290 249 262 263 263 242 238 253 279 278
112 113 116 113 112 99 81 62 52 68 59 96 127 127 83 348 357 12 20 5 358 348 342 341 327 310 307 323 326 321 318 312 308 310 298 287 284 282 265 237 275 304 309
122 116 106 103 108 107 105 80 52 81 88 100 115 146 149 322 340 0 14 6 352 338 331 328 320 312 313 319 303 299 305 303 315 323 322 319 309 304 292 217 213 220 262
128 112 94 99 119 119 89 54 56 61 56 56 71 52 323 323 346 359 6 3 332 324 323 319 314 318 319 318 305 258 264 280 299 304 307 312 318 318 311 270 213 196 207
113 103 98 94 99 99 82 52 49 60 60 50 53 23 357 357 7 2 7 5 354 316 307 307 308 317 321 326 323 307 306 305 299 311 317 315 313 312 306 301 276 237 221
104 106 104 86 76 91 97 81 59 57 64 52 57 47 5 351 349 358 357 351 347 332 301 307 315 326 336 341 338 340 342 339 332 326 318 303 290 288 299 315 324 317 299
123 146 133 112 86 77 84 97 95 84 78 68 63 50 354 331 335 343 341 336 339 340 332 325 330 345 0 352 346 348 348 336 322 306 300 299 308 322 326 325 331 342 350
141 153 116 135 136 116 98 110 128 160 170 153 162 171 343 317 305 323 324 319 319 314 325 336 353 354 357 351 347 344 344 350 349 334 331 331 332 336 329 329 337 352 349
118 50 124 156 152 152 141 62 31 162 169 168 190 201 250 264 300 321 327 328 330 335 10 357 346 348 350 349 350 348 349 350 344 344 346 343 338 334 330 331 340 339 319
161 185 161 163 166 173 173 164 210 321 306 285 273 272 275 294 311 322 334 343 4 33 38 1 353 351 353 356 357 356 347 338 341 352 352 345 341 339 338 334 334 332 320
161 171 162 177 186 183 188 187 183 195 288 308 304 294 299 307 317 328 347 12 12 17 17 5 1 0 3 5 3 360 351 349 353 351 348 346 344 339 338 335 330 321 309
168 179 171 172 158 158 162 151 158 176 193 270 322 330 332 341 2 15 35 48 20 0 1 7 10 11 8 6 2 357 353 347 344 343 344 343 340 339 336 332 329 331 334
190 198 168 138 118 105 112 119 123 135 147 177 287 299 337 20 17 2 13 23 28 13 12 19 16 17 11 7 1 356 352 347 346 345 339 337 334 333 332 330 329 328 321
200 214 169 128 135 140 131 127 130 134 155 202 261 269 203 80 21 1 2 8 16 19 28 36 28 16 10 5 1 356 351 339 335 333 332 331 331 330 328 330 329 329 330
183 187 162 154 148 140 140 140 135 141 175 217 288 324 31 71 52 20 356 348 359 31 65 77 50 22 10 5 358 351 342 334 333 333 328 325 324 324 326 332 336 335 338
168 168 154 151 149 143 136 145 147 150 183 233 239 7 43 67 50 16 351 344 15 45 63 70 55 19 4 1 356 348 331 318 309 306 309 313 317 320 323 325 332 339 341
179 168 163 157 152 148 153 164 169 179 197 175 126 127 134 126 94 31 1 357 38 64 78 71 51 26 14 0 343 334 318 305 296 287 282 286 300 309 320 329 334 341 346
163 158 156 156 158 163 168 176 183 186 168 151 140 125 122 122 109 24 6 23 59 81 91 77 36 16 6 359 352 340 330 326 321 311 290 285 305 318 328 334 339 344 353
169 161 158 158 161 167 173 181 190 188 178 173 157 149 149 143 136 44 17 41 75 89 96 77 45 27 8 355 347 343 339 338 337 336 330 331 347 349 346 338 347 354 358